Flag for Indonesia Weather past 2 weeks in Makassar, South Sulawesi, Indonesia

Now
88 °F

Passing clouds.


Feels Like: 90 °F
Forecast: 75 / 89 °F
Wind: 7 mph from Northwest

Location: Ujung Pandang / Hasanuddin

Current Time: Aug 2, 2015 at 5:12:21 PM

Latest Report: Aug 2, 2015 at 4:30 PM


Visibility: N/A

Pressure: 29.83 "Hg

Humidity: 49%

Dew point: 66 °F

Location of MakassarLocation

Historic Weather in Makassar — Graph

°F

Makassar temperature yesterday

Maximum temperature yesterday: 91 °F (at 12:00 PM)
Minimum temperature yesterday: 70 °F (at 6:00 AM)
Average temperature yesterday: 83 °F

Past Weeks' High & Low Weather Summary

 TemperatureHumidityPressure
High93 °F (Jul 18, 3:00 PM)100% (Jul 19, 1:00 AM)29.98 "Hg (Jul 19, 1:00 AM)
Low66 °F (Aug 2, 6:00 AM)38% (Aug 2, 12:00 PM)29.77 "Hg (Jul 19, 2:00 PM)
Average82 °F71%29.89 "Hg
* Reported Jul 18 3:00 PM — Aug 2 3:30 PM, Makassar, Weather by CustomWeather, © 2015

Note: Actual official high and low records may vary slightly from our data, if they occured in-between our weather recording intervals... More about our weather records

Advertising

Makassar weather history for previous 24 hours

 ConditionsComfort  
Time TempWeatherWind HumidityBarometerVisibility
3:30 PM
Sun, Aug 2
90 °FPassing clouds.12 mph43%29.83 "HgN/A
3:00 PM90 °FPassing clouds.13 mph41%29.83 "HgN/A
2:30 PM91 °FPassing clouds.10 mph41%29.83 "HgN/A
2:00 PM90 °FPassing clouds.12 mph41%29.86 "HgN/A
1:30 PM91 °FPassing clouds.12 mph41%29.86 "HgN/A
1:00 PM91 °FPassing clouds.8 mph41%29.86 "HgN/A
12:30 PM91 °FPassing clouds.7 mph41%29.89 "HgN/A
12:00 PM91 °FPassing clouds.5 mph38%29.89 "HgN/A
11:00 AM90 °FPassing clouds.5 mph41%29.92 "HgN/A
10:30 AM88 °FPassing clouds.6 mph46%29.92 "HgN/A
10:00 AM88 °FPassing clouds.3 mph43%29.95 "HgN/A
9:30 AM86 °FPassing clouds.7 mph46%29.95 "HgN/A
9:00 AM84 °FPassing clouds.6 mph51%29.95 "HgN/A
8:30 AM82 °FPassing clouds.6 mph51%29.95 "HgN/A
8:00 AM79 °FPassing clouds.6 mph61%29.95 "HgN/A
7:30 AM72 °FPassing clouds.2 mph88%29.95 "HgN/A
7:00 AM70 °FPassing clouds.2 mph94%29.92 "HgN/A
6:30 AM66 °FPassing clouds.3 mph100%29.92 "HgN/A
6:00 AM66 °FPassing clouds.2 mph100%29.92 "HgN/A
5:00 AM68 °FPassing clouds.5 mph94%29.92 "Hg5 mi
4:30 AM68 °FPassing clouds.3 mph94%29.92 "Hg5 mi
4:00 AM68 °FPassing clouds.3 mph100%29.89 "Hg5 mi
3:30 AM70 °FPassing clouds.3 mph94%29.89 "Hg5 mi
3:00 AM72 °FPassing clouds.1 mph83%29.89 "Hg5 mi
2:30 AM72 °FPassing clouds.2 mph83%29.89 "Hg5 mi
2:00 AM72 °FPassing clouds.3 mph83%29.92 "Hg5 mi
1:00 AM75 °FPassing clouds.5 mph74%29.92 "Hg5 mi
12:30 AM73 °FPassing clouds.5 mph78%29.92 "Hg5 mi
12:00 AM75 °FPassing clouds.3 mph74%29.92 "Hg5 mi
11:30 PM
Sat, Aug 1
77 °FPassing clouds.2 mph69%29.92 "Hg5 mi
11:00 PM77 °FPassing clouds.1 mph69%29.92 "Hg5 mi
10:30 PM77 °FWarm.No wind69%29.92 "HgN/A
10:00 PM77 °FPassing clouds.3 mph69%29.92 "Hg5 mi
9:30 PM77 °FPassing clouds.5 mph74%29.89 "Hg5 mi
9:00 PM77 °FPassing clouds.5 mph79%29.89 "Hg5 mi
8:30 PM79 °FPassing clouds.5 mph70%29.89 "Hg5 mi
8:00 PM79 °FPassing clouds.5 mph70%29.86 "Hg5 mi
7:30 PM81 °FPassing clouds.6 mph66%29.86 "Hg5 mi
7:00 PM82 °FPassing clouds.7 mph70%29.86 "Hg5 mi
6:30 PM86 °FPassing clouds.9 mph66%29.83 "Hg6 mi
6:00 PM86 °FPassing clouds.6 mph55%29.83 "HgN/A
5:30 PM88 °FPassing clouds.7 mph52%29.83 "HgN/A
5:00 PM90 °FPassing clouds.6 mph49%29.83 "HgN/A
Weather by CustomWeather, © 2015

See weather overviewHow to use our weather pages